PST,Max TemperatureF,Mean TemperatureF,Min TemperatureF,Max Dew PointF,MeanDew PointF,Min DewpointF,Max Humidity, Mean Humidity, Min Humidity, Max Sea Level PressureIn, Mean Sea Level PressureIn, Min Sea Level PressureIn, Max VisibilityMiles, Mean VisibilityMiles, Min VisibilityMiles, Max Wind SpeedMPH, Mean Wind SpeedMPH, Max Gust SpeedMPH,PrecipitationIn, CloudCover, Events, WindDirDegrees
2005-10-1,61,54,47,52,48,44,100,80,60,29.88,29.80,29.75,10,9,3,17,8,21,0.07,7,Rain,203
2005-10-2,55,49,43,50,45,43,96,84,71,29.91,29.87,29.83,10,9,4,16,7,21,0.34,6,Rain,157
2005-10-3,60,51,42,49,45,41,100,76,51,30.17,30.01,29.91,10,10,10,9,3,10,T,5,,219
2005-10-4,60,54,47,48,46,43,100,78,55,30.32,30.26,30.19,10,10,9,10,5,14,0.00,5,,178
2005-10-5,65,58,51,48,46,43,89,67,45,30.25,30.18,30.12,10,10,10,10,4,12,T,7,Rain,337
2005-10-6,58,56,54,55,53,47,100,84,67,30.09,29.95,29.87,10,8,2,17,7,21,0.20,8,Rain,187
2005-10-7,62,56,49,54,50,46,100,80,60,29.98,29.93,29.88,10,10,7,16,8,20,0.05,5,,204
2005-10-8,59,54,48,52,49,46,100,84,67,29.95,29.90,29.87,10,9,4,12,5,14,0.06,7,Rain,195
2005-10-9,63,56,49,52,50,46,100,84,67,30.24,30.15,29.96,10,9,2,13,6,15,0.01,7,Rain,176
2005-10-10,57,53,48,54,52,48,100,92,83,30.18,30.08,30.04,10,10,8,17,6,18,0.04,7,Rain,183
2005-10-11,62,57,51,54,49,42,100,76,51,30.23,30.18,30.09,10,9,1,13,6,16,0.17,5,Rain,49
2005-10-12,55,52,49,51,48,46,100,89,77,30.21,30.11,30.02,10,10,9,20,6,22,0.07,8,Rain,184
2005-10-13,61,55,49,54,51,48,100,86,72,30.15,30.09,30.02,10,10,5,12,6,14,0.03,7,Rain,191
2005-10-14,69,61,52,56,52,47,100,79,57,30.03,29.76,29.62,10,10,6,20,6,26,0.26,8,Rain,173
2005-10-15,60,56,52,54,52,50,100,85,69,30.09,29.87,29.67,10,10,7,12,5,13,0.05,7,Rain,353
2005-10-16,58,55,52,54,50,46,100,86,72,30.21,30.15,30.07,10,10,10,21,13,24,0.00,8,,213
2005-10-17,66,61,56,56,55,53,100,84,67,30.10,30.01,29.96,10,9,2,22,11,25,0.01,7,Rain,227
2005-10-18,56,54,52,56,53,52,100,97,93,29.97,29.90,29.81,10,4,0,17,7,20,0.02,8,Fog-Rain,5
2005-10-19,60,56,52,54,53,49,100,90,80,30.12,29.93,29.82,10,7,2,18,11,25,0.12,8,Rain,209
2005-10-20,58,52,45,48,45,39,100,76,51,30.26,30.22,30.14,10,10,10,10,3,14,0.00,6,,179
2005-10-21,68,59,50,52,49,47,96,74,52,30.23,30.13,30.01,10,10,10,10,4,13,0.00,3,,350
2005-10-22,67,57,47,52,50,47,100,76,52,30.03,30.00,29.97,10,10,10,13,4,15,0.00,3,,183
2005-10-23,55,54,52,54,53,51,100,97,93,30.06,30.02,29.98,10,4,0,8,3,9,0.15,8,Rain,340
2005-10-24,60,55,50,54,52,49,100,86,72,30.10,30.05,29.96,10,4,0,10,3,12,0.00,5,Fog,213
2005-10-25,63,55,47,55,49,44,100,78,55,29.97,29.88,29.76,10,7,0,25,10,35,0.05,5,Fog-Rain,194
2005-10-26,55,49,42,46,44,40,93,79,64,30.12,30.06,29.97,10,10,10,17,6,21,0.00,5,,183
2005-10-27,56,47,37,42,39,35,92,70,47,30.02,29.84,29.66,10,10,10,16,6,20,0.03,5,Rain,143
2005-10-28,57,52,47,48,44,41,100,80,59,30.04,29.86,29.64,10,9,4,20,12,25,0.18,7,Rain,190
2005-10-29,55,50,44,47,45,43,100,83,66,30.30,30.18,30.04,10,10,10,16,8,20,0.06,5,Rain,188
2005-10-30,57,50,43,48,44,41,100,81,61,30.36,30.30,30.17,10,10,7,18,8,26,0.31,7,Rain,169
2005-10-31,54,51,48,52,49,47,100,92,83,30.20,30.12,29.99,10,10,5,22,11,29,0.73,8,Rain,180